STARLINK-2188, 48563

Orbit data source: Space-Track

STARLINK-2188, 48563 is a payload satellite owned by SpaceX/Seattle (US) in LEO that was launched on Sat, 15 May 2021 UTC via an FALCON 9 launch vehicle from the Air Force Eastern Test Range (AFETR). Payload-class satellites include a variety of spacecraft equipped with specific instruments for various scientific and technological missions. These include communications satellites like Starlink; space stations such as the ISS; scientific satellites like the Hubble; Earth observation satellites from companies like Planet Labs, Umbra, and HawkEye 360; GPS; miniature CubeSats for education and research; and military/defense satellites.

Loading next visibility...
Identifier
48563, 2021-041L
Orbit
LEO
Country
Flag of USUS
Related business
Manufacturer
SpaceX/Seattle
Mission
Operational Commercial Communications
Bus & Motor
STARLINK, Unknown motor
Mass
260 kg wet, ~248 kg dry
Launch date (UTC)
2021-05-15 (5 years ago)
Launch vehicle
FALCON 9
Launch site
Air Force Eastern Test Range (AFETR)
Object type
Payload
Rocket body
Debris
Shape & HBR
Box + 1 Pan, 10.1 m
Radar Cross Section
13.562 m², Large (>1 m²)

Expand to show TLE details & history
Last TLE update: 2 days ago

TLE from 2 days ago
0 STARLINK-2188
1 48563U 21041L   26171.27476731  .00001396  00000-0  56738-4 0  9990
2 48563  53.1613   9.4779 0001264 103.8544 256.2598 15.31696396280995
Epoch: 2026-06-20T06:35Z
TLE epoch observation values (Epoch: 2026-06-20T06:35:39.895Z)
Latitude
-0.00003°
Longitude
2.06991°
Altitude
471.857 km
Speed
7.631 km/s
True Right ascension
00h 37m 54s
True Declination
0° 00' 00"
Sunlit
Object was in daylight at epoch
Visualization orbit readout
Latitude
Unknown
Longitude
Unknown
Altitude
Unknown
Speed
Unknown
Apparent Right ascension
Unknown
Apparent Declination
Unknown
Sunlit
N/A
Visualization observer readout
Local Sidereal Time
21:37:24
Azimuth
Unknown
Elevation
Unknown
Doppler factor
Unknown
Orbital elements
Apogee altitude
471.873 km
Perigee altitude
470.141 km
Semi-major axis
6,849.144 km
Eccentricity
0.00013
Inclination
53.1613°
RAAN
9.4779°
Arg. of periapsis
103.8544°
True anomaly
256.24573°
Mean anomaly
256.2598°
Eccentric anomaly
256.25277°
Mean motion
3.82903 °/min
Orbital period
94.02 mins
BSTAR
0.000056738
Loading maneuver chart data...
Computing Atmospheric mass density...

Documentation

Showing up to 5 results
|